Location: Unspecified
(0.0000°N, 0.0000°E)
Time: 08:06:20
(UTC+00:00)

Vanguard 2 - Pass Details

Date: 26 October 2021
Orbit: 554 x 2936 km, 32.9° (Epoch: 06 December)

Event Time Altitude Azimuth Distance (km) Brightness Sun altitude
Rises 19:30:18 0° 225° (SW) 5,884 13.0 -25.9°
Reaches altitude 10° 19:33:55 10° 221° (SW) 5,124 12.4 -26.8°
Maximum altitude 19:49:50 60° 144° (SE) 3,212 10.4 -30.6°
Enters shadow 19:55:48 46° 94° (E) 3,608 10.4 -32.1°
Drops below altitude 10° 20:06:55 10° 69° (ENE) 5,483 - -34.7°
Sets 20:10:53 0° 65° (ENE) 6,303 - -35.7°
